Galesburg, IL

9:51 PM CDT on August 22, 2019 (GMT -0500)
Galesburg Municipal

Weather History for KGBG - May, 2019

Change the Weather History Date:

Monday, May 13, 2019

  Actual Average Record
Temperature  
Mean Temperature 52 °F -  
Max Temperature 66 °F 69 °F 89 °F (1956)
Min Temperature 39 °F 48 °F 33 °F (2013)
Degree Days  
Heating Degree Days 12    
Growing Degree Days 2 (Base 50)    
Moisture  
Dew Point 42 °F    
Average Humidity 70    
Maximum Humidity 100    
Minimum Humidity 38    
Precipitation  
Precipitation 0.00 in - - ()
Sea Level Pressure  
Sea Level Pressure 29.97 in    
Wind  
Wind Speed 6 mph (WNW)    
Max Wind Speed 13 mph    
Max Gust Speed 17 mph    
Visibility 9 miles    
Events      
Averages and records for this station are not official NWS values.
T = Trace of Precipitation, MM = Missing Value Source: NWS Daily Summary

Daily Weather History Graph

Daily Weather History Graph

Search for Another Location

Airport or City:

Astronomy

May. 13, 2019 Rise Set
Actual Time 5:46 AM CDT 8:10 PM CDT
Civil Twilight 5:15 AM CDT 8:41 PM CDT
Nautical Twilight 4:36 AM CDT 9:20 PM CDT
Astronomical Twilight 3:54 AM CDT 10:03 PM CDT
Moon 2:19 PM CDT (5/13) 3:08 AM CDT (5/13)
Length of Visible Light 15h 26m
Length of Day
14h 24m
Waxing Gibbous, 69% of the Moon is Illuminated
May 13
Waxing Gibbous
May 18
Full
May 26
Last Quarter
Jun 3
New
Jun 10
First Quarter

Hourly Weather History & Observations

Time (CDT) Temp. Windchill Dew Point Humidity Pressure Visibility Wind Dir Wind Speed Gust Speed Precip Events Conditions
12:15 AM 42.1 °F 39.2 °F 42.1 °F 100% 29.92 in 5.0 mi West 4.6 mph - N/A   Mostly Cloudy
12:35 AM 42.8 °F 40.1 °F 42.8 °F 100% 29.92 in 7.0 mi West 4.6 mph - N/A   Overcast
12:55 AM 42.8 °F 40.1 °F 42.8 °F 100% 29.92 in 7.0 mi WNW 4.6 mph - N/A   Overcast
1:15 AM 42.3 °F 40.5 °F 42.3 °F 100% 29.92 in 7.0 mi WNW 3.5 mph - N/A   Overcast
1:35 AM 41.2 °F 39.2 °F 41.2 °F 100% 29.92 in 5.0 mi WNW 3.5 mph - N/A   Overcast
1:55 AM 41.7 °F 39.8 °F 41.7 °F 100% 29.92 in 7.0 mi West 3.5 mph - N/A   Overcast
2:15 AM 42.1 °F 40.2 °F 42.1 °F 100% 29.92 in 5.0 mi West 3.5 mph - N/A   Overcast
2:35 AM 42.6 °F 40.9 °F 42.6 °F 100% 29.92 in 7.0 mi WNW 3.5 mph - N/A   Overcast
2:55 AM 42.3 °F 40.5 °F 42.3 °F 100% 29.92 in 7.0 mi WNW 3.5 mph - N/A   Overcast
3:15 AM 41.9 °F 40.0 °F 41.9 °F 100% 29.92 in 5.0 mi West 3.5 mph - N/A   Overcast
3:35 AM 41.2 °F 38.2 °F 41.2 °F 100% 29.92 in 3.0 mi West 4.6 mph - N/A   Scattered Clouds
3:55 AM 40.3 °F 36.3 °F 40.3 °F 100% 29.92 in 5.0 mi West 5.8 mph - N/A   Clear
4:15 AM 40.3 °F 36.3 °F 40.3 °F 100% 29.93 in 7.0 mi West 5.8 mph - N/A   Clear
4:35 AM 39.9 °F 36.7 °F 39.9 °F 100% 29.93 in 5.0 mi West 4.6 mph - N/A   Clear
4:55 AM 39.7 °F 36.5 °F 39.7 °F 100% 29.93 in 5.0 mi West 4.6 mph - N/A   Clear
5:15 AM 39.9 °F 35.1 °F 39.9 °F 100% 29.93 in 7.0 mi West 6.9 mph - N/A   Clear
5:35 AM 40.1 °F 35.3 °F 40.1 °F 100% 29.94 in 7.0 mi West 6.9 mph - N/A   Clear
5:55 AM 40.3 °F 36.3 °F 40.3 °F 100% 29.95 in 5.0 mi West 5.8 mph - N/A   Clear
6:15 AM 40.6 °F 36.7 °F 40.6 °F 100% 29.95 in 5.0 mi West 5.8 mph - N/A   Clear
6:35 AM 41.7 °F 38.0 °F 41.7 °F 100% 29.96 in 7.0 mi West 5.8 mph - N/A   Clear
6:55 AM 43.0 °F 41.3 °F 43.0 °F 100% 29.97 in 7.0 mi West 3.5 mph - N/A   Clear
7:15 AM 44.4 °F 40.0 °F 44.2 °F 99% 29.97 in 10.0 mi WNW 8.1 mph - N/A   Clear
7:35 AM 45.9 °F 41.2 °F 44.6 °F 95% 29.98 in 10.0 mi WNW 9.2 mph - N/A   Clear
7:55 AM 47.3 °F - 44.2 °F 89% 29.98 in 10.0 mi WNW 9.2 mph - N/A   Clear
8:15 AM 49.3 °F - 44.2 °F 83% 29.99 in 10.0 mi WNW 8.1 mph - N/A   Clear
8:35 AM 50.2 °F - 44.4 °F 81% 29.99 in 10.0 mi WNW 10.4 mph - N/A   Clear
8:55 AM 51.1 °F - 44.8 °F 79% 29.99 in 10.0 mi WNW 9.2 mph - N/A   Clear
9:15 AM 52.9 °F - 45.7 °F 77% 29.99 in 10.0 mi WNW 9.2 mph - N/A   Clear
9:35 AM 54.0 °F - 45.5 °F 73% 29.99 in 10.0 mi WNW 11.5 mph - N/A   Clear
9:55 AM 55.4 °F - 46.2 °F 71% 29.99 in 10.0 mi WNW 10.4 mph - N/A   Clear
10:15 AM 56.3 °F - 46.2 °F 69% 29.99 in 10.0 mi WNW 10.4 mph 16.1 mph N/A   Clear
10:35 AM 57.6 °F - 46.4 °F 66% 29.99 in 10.0 mi WNW 8.1 mph - N/A   Clear
10:55 AM 58.8 °F - 46.4 °F 63% 29.99 in 10.0 mi WNW 9.2 mph - N/A   Clear
11:15 AM 59.5 °F - 46.2 °F 61% 29.99 in 10.0 mi WNW 8.1 mph - N/A   Clear
11:35 AM 60.4 °F - 46.0 °F 59% 29.99 in 10.0 mi WNW 8.1 mph - N/A   Scattered Clouds
11:55 AM 61.5 °F - 45.3 °F 55% 29.99 in 10.0 mi WNW 9.2 mph 16.1 mph N/A   Scattered Clouds
12:15 PM 61.2 °F - 44.2 °F 54% 29.98 in 10.0 mi WNW 9.2 mph 16.1 mph N/A   Scattered Clouds
12:35 PM 63.1 °F - 44.8 °F 51% 29.98 in 10.0 mi WNW 10.4 mph 17.3 mph N/A   Scattered Clouds
12:55 PM 63.7 °F - 44.6 °F 50% 29.98 in 10.0 mi WNW 8.1 mph 16.1 mph N/A   Scattered Clouds
1:15 PM 63.5 °F - 43.0 °F 47% 29.97 in 10.0 mi WNW 8.1 mph - N/A   Scattered Clouds
1:35 PM 62.6 °F - 40.3 °F 44% 29.97 in 10.0 mi WNW 8.1 mph - N/A   Overcast
1:55 PM 61.9 °F - 41.0 °F 46% 29.97 in 10.0 mi WNW 5.8 mph - N/A   Overcast
2:15 PM 62.8 °F - 40.5 °F 44% 29.97 in 10.0 mi WNW 10.4 mph 17.3 mph N/A   Overcast
2:35 PM 64.4 °F - 38.5 °F 38% 29.97 in 10.0 mi WNW 4.6 mph - N/A   Mostly Cloudy
2:55 PM 64.4 °F - 41.2 °F 43% 29.96 in 10.0 mi West 12.7 mph 17.3 mph N/A   Mostly Cloudy
3:15 PM 63.9 °F - 40.1 °F 42% 29.96 in 10.0 mi WSW 8.1 mph - N/A   Mostly Cloudy
3:35 PM 66.2 °F - 41.0 °F 40% 29.96 in 10.0 mi NE 4.6 mph - N/A   Scattered Clouds
3:55 PM 64.2 °F - 40.6 °F 42% 29.96 in 10.0 mi WNW 8.1 mph - N/A   Mostly Cloudy
4:15 PM 63.5 °F - 41.0 °F 44% 29.96 in 10.0 mi WSW 5.8 mph - N/A   Overcast
4:35 PM 65.7 °F - 40.3 °F 39% 29.96 in 10.0 mi West 5.8 mph - N/A   Mostly Cloudy
4:55 PM 66.2 °F - 40.6 °F 39% 29.96 in 10.0 mi West 6.9 mph 17.3 mph N/A   Mostly Cloudy
5:15 PM 64.0 °F - 40.5 °F 42% 29.96 in 10.0 mi WNW 5.8 mph - N/A   Scattered Clouds
5:35 PM 63.7 °F - 40.8 °F 43% 29.96 in 10.0 mi WNW 5.8 mph - N/A   Mostly Cloudy
5:55 PM 63.1 °F - 41.0 °F 44% 29.96 in 10.0 mi WNW 3.5 mph - N/A   Mostly Cloudy
6:15 PM 63.7 °F - 42.8 °F 47% 29.96 in 10.0 mi NNW 5.8 mph - N/A   Overcast
6:35 PM 64.8 °F - 39.4 °F 39% 29.96 in 10.0 mi WNW 4.6 mph - N/A   Overcast
6:55 PM 64.4 °F - 39.9 °F 41% 29.96 in 10.0 mi WNW 5.8 mph - N/A   Overcast
7:15 PM 62.6 °F - 39.9 °F 43% 29.97 in 10.0 mi Calm Calm - N/A   Scattered Clouds
7:35 PM 61.3 °F - 42.6 °F 50% 29.97 in 10.0 mi WNW 3.5 mph - N/A   Mostly Cloudy
7:55 PM 61.0 °F - 43.0 °F 52% 29.97 in 10.0 mi Calm Calm - N/A   Overcast
8:15 PM 59.5 °F - 43.5 °F 55% 29.98 in 10.0 mi Calm Calm - N/A   Overcast
8:35 PM 57.4 °F - 44.1 °F 61% 29.98 in 10.0 mi Calm Calm - N/A   Overcast
8:55 PM 58.1 °F - 42.8 °F 57% 29.99 in 10.0 mi SW 3.5 mph - N/A   Overcast
9:15 PM 58.5 °F - 42.1 °F 55% 29.99 in 10.0 mi WSW 4.6 mph - N/A   Overcast
9:35 PM 57.4 °F - 42.3 °F 57% 30.00 in 10.0 mi WSW 4.6 mph - N/A   Mostly Cloudy
9:55 PM 55.9 °F - 42.1 °F 60% 30.00 in 10.0 mi WSW 3.5 mph - N/A   Clear
10:15 PM 55.2 °F - 41.9 °F 61% 30.01 in 10.0 mi WSW 3.5 mph - N/A   Clear
10:35 PM 53.8 °F - 42.1 °F 65% 30.01 in 10.0 mi WSW 3.5 mph - N/A   Clear
10:55 PM 53.8 °F - 41.4 °F 63% 30.01 in 10.0 mi WSW 3.5 mph - N/A   Clear
11:10 PM 53.2 °F - 41.0 °F 63% 30.01 in 10.0 mi Calm Calm - N/A   Clear
11:35 PM 52.3 °F - 40.8 °F 65% 30.01 in 10.0 mi SW 4.6 mph - N/A   Clear
11:55 PM 52.7 °F - 40.3 °F 63% 30.01 in 10.0 mi SW 3.5 mph - N/A   Clear